Find Lopen

NORAD ID: 60473 Int'l Des: 2024-149 Owner: ARRAY Country: US operational
LEOCIRCULARRETROGRADESSO

現在のビュー

3D地球を読み込み中...

Lopenについて

説明を読み込み中...

次回通過

Passes for default location (London). Set your location on the main map for personalized predictions.

高度履歴

Loading altitude history...

軌道要素

1 60473U 24149F 26151.23008065 .00022488 00000-0 58050-3 0 9994
2 60473 97.3783 234.4718 0000727 38.0717 322.0580 15.39159806 99656
Epoch: May 31, 2026 • Age: 13 hours

現在のステータス

高度 457.7 km
速度 7.64 km/s
衛星直下点 54.96°N, 101.81°W
打ち上げ日 Aug 16, 2024
運用期間 1.7 years
タイプ other

技術仕様

分類 Payload
質量 1.83 kg
乾燥質量 1.83 kg
総質量 1.83 kg
長さ 0.10 m
直径 0.10 m
スパン 0.18 m
形状 Box
製造者 ARRAY
バスタイプ Cubesat 1.5U
フェーズステータス In Orbit
所有者/国 ARRAY/US

Most Searched